Miscellaneous Local Product
Issued by NWS North Platte, NE

Home | Current Version | Previous Version | Text Only | Print | Product List | Glossary On
Versions: 1 2 3 4 5 6 7 8 9 10 11 12 13 14 15 16 17 18 19 20 21 22 23 24 25 26 27 28 29 30 31 32 33 34 35 36 37 38 39 40 41 42 43 44 45 46 47 48 49 50
855
AXUS43 KLBF 231210
MISLBF


WESTERN AND NORTH CENTRAL NEBRASKA HOURLY WEATHER ROUNDUP
NATIONAL WEATHER SERVICE NORTH PLATTE NE
700 AM CDT FRI JUN 23 2017

NOTE: "FAIR" INDICATES FEW OR NO CLOUDS BELOW 12,000 FEET WITH NO
SIGNIFICANT WEATHER AND/OR OBSTRUCTIONS TO VISIBILITY.

NOTE: STATIONS NOT REPORTING VARIABLES SUCH AS SKY/WEATHER OR
PRESSURE ARE PROVIDED BY RAWS AND APRS NETWORKS AND ARE NOT UNDER
NATIONAL WEATHER SERVICE QUALITY CONTROL.

...OBSERVATIONS IN AND NEAR THE EASTERN PANHANDLE OF NEBRASKA...

CITY           SKY/WX    TMP DP  RH WIND       PRES   REMARKS
PINE RIDGE     LGT RAIN  52  49  89 SE3       30.19F
GORDON         CLOUDY    51  46  83 CALM      30.22R
CHADRON        CLOUDY    52  44  74 W3        30.21F
ALLIANCE       CLOUDY    50  42  74 N10       30.24R
SIDNEY         CLOUDY    51  44  77 N17       30.26R
CRESCENT LAKE    N/A     52  41  65 N17G33      N/A
$$

...OBSERVATIONS IN NORTHERN NEBRASKA AND FAR SOUTHERN SOUTH DAKOTA...

CITY           SKY/WX    TMP DP  RH WIND       PRES   REMARKS
WINNER         CLOUDY    59  45  59 NW21G31   30.11R
VALENTINE      CLOUDY    58  41  53 NW13G25   30.17R
THEDFORD       CLOUDY    57  42  57 NW23G31   30.17R
AINSWORTH      LGT RAIN  56  44  64 NW15      30.14R
O`NEILL        LGT RAIN  56  46  67 NW15G22   30.06R
ORD            CLOUDY    61  37  41 N20G25    30.04R
BROKEN BOW     LGT RAIN  59  41  51 N16G28    30.07R
VALENTINE NWR    N/A     53  44  71 NW12G22     N/A
HALSEY           N/A     58  37  45 NW9         N/A
BUTTE            N/A     57  46  66 NW20G30     N/A
CHAMBERS         N/A     59  39  47 N5          N/A
EWING            N/A     59  44  58 NW9         N/A
$$

...OBSERVATIONS IN SOUTHWEST NEBRASKA AND FAR NORTHEAST COLORADO...

CITY           SKY/WX    TMP DP  RH WIND       PRES   REMARKS
WRAY           DRIZZLE   57  54  88 MISG      30.17R
IMPERIAL       CLOUDY    56  48  74 N17G25    30.15R
OGALLALA       CLOUDY    61  39  45 N21G28    30.18R
NORTH PLATTE   CLOUDY    60  40  47 N10       30.13R
MCCOOK         CLOUDY    60  54  80 N10       30.06R
LEXINGTON      CLOUDY    60  49  67 N12G18    30.08R
STAPLETON        N/A     58  40  51 CALM        N/A
GOTHENBURG       N/A     62  47  58 NW9         N/A
CALLAWAY         N/A     60  42  52 N12         N/A
$$

...OBSERVATIONS IN CENTRAL LINCOLN COUNTY AREA...

CITY           SKY/WX    TMP DP  RH WIND       PRES   REMARKS
N.P. AIRPORT   CLOUDY    60  40  47 N10       30.13R
N.P. DOWNTOWN    N/A     60  40  47 N5G12       N/A
N.P. SOUTHEAST   N/A     60  39  46 N6          N/A
N.P. HILLCREST   N/A     60  38  44 N17G25      N/A
$$

...SOME OBSERVATIONS FROM AROUND THE REGION...

CITY           SKY/WX    TMP DP  RH WIND       PRES   REMARKS
DENVER         HVY RAIN  53  50  89 NE16G28   30.27R FOG
LIMON          CLOUDY    54  46  74 NE20G29   30.22R
ASPEN          CLOUDY    45  36  70 SW9       30.28R
LARAMIE        CLOUDY    43  34  70 NE10      30.33R
CASPER         CLEAR     40  34  79 N7        30.29S
CHEYENNE       CLOUDY    45  36  70 N20G30    30.31R
SCOTTSBLUFF    CLOUDY    54  37  52 NW9G28    30.26F
GRAND ISLAND   MOCLDY    63  48  58 N15       29.99R
OMAHA          PTSUNNY   63  55  75 N7        29.91R
SIOUX FALLS    MOSUNNY   58  48  69 NW15G21   29.93R
PIERRE         MOCLDY    55  47  74 W14       30.06R
RAPID CITY     PTCLDY    53  39  59 N20       30.18R
BISMARCK       CLOUDY    56  44  64 NW15G23   30.03R
KANSAS CITY    CLOUDY    71  65  81 N12       29.78R
HILL CITY      LGT RAIN  66  50  56 N17G25    29.95F
WICHITA        PTCLDY    73  67  81 N16G25    29.81R
DODGE CITY     PTCLDY    64  61  90 N16       29.98R
OKLAHOMA CITY  PTCLDY    74  70  87 W9        29.79R
DALLAS         MOCLDY    79  75  87 S8        29.73R
AMARILLO       CLEAR     73  58  59 E12       29.90S
$$




USA.gov is the U.S. government's official web portal to all federal, state and local government web resources and services.